Current weather by "City, St" or "zip code"  
 

Current Conditions: Everett Snohomish County, WA

Mostly Cloudy


56.0 F

Last Updated on Oct 29 2020, 2:53 pm PDT
Humidity: 75%
Wind Speed: S 4.6 mph
Barometer 30.14 in
Dewpoint: 48.0 F
Visibility: 10.00 mi
Precip: --
Heat Index: NA
Wind Chill: 55 F
Current conditions at:

Everett Snohomish County, WA (KPAE)

Lat: 47.92331 Lon: 122.28305

Local Radar Image active severe weather and emergency alerts image image weather storm and storm spotter reports image weather observation monitoring service image
Local
Radar
Active
Alerts
Storm Reports Obs
Monitoring

Sign-up For Email & Text Message Weather Alert Notification Services



Advertise Here

Observation History for Everett Snohomish County, WA


Time Wind
(mph)
Vis
(mi)
Weather Precip (in) Temperature (F) Relative
Humidity
Wind
Chill
(F)
Heat
Index
(F)
Pressure
Air Dwpt altimeter
(in)
sea level
(mb)
Rmks
2:53 pm PDT S 4.6 10.00 Mostly Cloudy -- 56.0 48.0 75% 55 NA 30.14 1020.6
1:53 pm PDT S 6.9 10.00 Mostly Cloudy -- 55.0 48.9 80% 53 NA 30.16 1021.3
12:53 pm PDT S 6.9 10.00 Overcast -- 54.0 50.0 87% 52 NA 30.18 1021.9
11:53 am PDT S 6.9 5.00 Fog/Mist -- 53.0 50.0 89% 51 NA 30.20 1022.6
10:53 am PDT SE 3.5 5.00 Fog/Mist -- 52.0 50.0 93% NA NA 30.20 1022.8
9:53 am PDT SE 3.5 5.00 Fog/Mist Trace 52.0 50.0 93% NA NA 30.20 1022.8
8:53 am PDT S 6.9 3.00 Fog/Mist 00.01 51.0 50.0 96% 48 NA 30.20 1022.6
7:53 am PDT SE 4.6 3.00 Overcast -- 51.0 50.0 96% 50 NA 30.19 1022.5
6:53 am PDT SE 8.1 10.00 Overcast 00.01 51.0 50.0 96% 48 NA 30.20 1022.7
5:53 am PDT SE 4.6 10.00 Light Rain 00.01 51.0 50.0 96% 50 NA 30.19 1022.5
4:53 am PDT SE 4.6 10.00 Light Rain 00.01 51.0 50.0 96% 50 NA 30.19 1022.4
3:53 am PDT SE 3.5 10.00 Overcast -- 52.0 50.0 93% NA NA 30.19 1022.5
2:53 am PDT SE 5.8 10.00 Overcast -- 52.0 48.9 89% 50 NA 30.19 1022.5
1:53 am PDT S 3.5 10.00 Overcast -- 52.0 50.0 93% NA NA 30.19 1022.5
12:53 am PDT SE 8.1 10.00 Overcast -- 52.0 48.9 89% 49 NA 30.19 1022.3
10:53 pm PDT N 0.0 10.00 Overcast -- 52.0 48.9 89% NA NA 30.18 1022.2
9:53 pm PDT S 6.9 10.00 Overcast -- 53.0 50.0 89% 51 NA 30.18 1022.0
8:53 pm PDT S 4.6 10.00 Overcast -- 53.0 50.0 89% 52 NA 30.18 1022.0
7:53 pm PDT S 4.6 10.00 Overcast -- 52.0 48.9 89% 51 NA 30.17 1021.9
6:53 pm PDT SW 3.5 10.00 Overcast -- 51.0 48.9 92% NA NA 30.17 1021.9
5:53 pm PDT S 9.2 10.00 Mostly Cloudy -- 51.0 46.9 86% 48 NA 30.17 1021.8
4:53 pm PDT SW 6.9 10.00 A Few Clouds -- 51.0 46.9 86% 48 NA 30.18 1022.2
3:53 pm PDT SW 9.2 10.00 Fair -- 52.0 46.9 83% 49 NA 30.19 1022.5

Regional Weather Observation


Whidbey Island Naval Air Station - Ault Field, WA (KNUW)

Overcast
59.0 F

Burlington/Mount Vernon, Skagit Regional Airport, WA (KBVS)

Overcast
61.0 F

Everett Snohomish County, WA (KPAE)

Mostly Cloudy
56.0 F

Eastsound, Orcas Island Airport, WA (KORS)

Overcast
57.0 F

Bellingham, Bellingham International Airport, WA (KBLI)

Overcast
57.0 F

Boeing Field - King County International Airport, WA (KBFI)

Mostly Cloudy
59.0 F